Regional Weather Roundup
Issued by NWS Kansas City/Pleasant Hill, MO

Home | Current Version | Previous Version | Graphics & Text | Print | Product List | Glossary Off
Versions: 1 2 3 4 5 6 7 8 9 10 11 12 13 14 15 16 17 18 19 20 21 22 23 24 25 26 27 28 29 30 31 32 33 34 35 36 37 38 39 40 41 42 43 44 45 46 47 48 49 50

000
ASUS43 KEAX 290810
RWREAX

WEATHER ROUNDUP FOR EASTERN KANSAS AND NORTHWEST MISSOURI
NATIONAL WEATHER SERVICE KANSAS CITY/PLEASANT HILL MO
300 AM CDT WED MAR 29 2017

KSZ040-057-103>105-MOZ028-029-037-043-290900-
...KANSAS CITY METROPOLITAN AREA...

CITY           SKY/WX    TMP DP  RH WIND       PRES   REMARKS
K.C. INTL      TSTM      52  49  89 NE20      29.93F FOG
K.C. DOWNTOWN  RAIN      53  50  89 NE16G24   29.89F FOG
LEES SUMMIT    RAIN      52  49  89 E21G31    29.88F FOG
OLATHE - IXD   TSTM      51  49  92 E14G26    29.87R FOG
OLATHE - OJC   RAIN      50  50 100 E20G29    29.85F FOG
LAWRENCE       RAIN      52  51  97 NE12G25   29.89F FOG

$$

MOZ001>008-011>017-020>025-030>033-038>040-044>046-053-054-290900-
...NORTHERN AND CENTRAL MISSOURI...

CITY           SKY/WX    TMP DP  RH WIND       PRES   REMARKS
ST. JOSEPH     CLOUDY    51  48  89 NE9       30.00R
MOSBY          CLOUDY    52  46  82 E16       29.95F
WARRENSBURG    CLOUDY    52  46  82 E15G25    29.91F
WHITEMAN AFB   CLOUDY    54  54 100 E15G24    29.90F
CLINTON        CLOUDY    54  48  82 E18G24    29.88F
SEDALIA        CLOUDY    53  49  86 E17G28    29.94F
WARSAW         NOT AVBL
CHILLICOTHE      N/A     51  47  86 E12G21    30.01S
KIRKSVILLE     CLOUDY    48  45  89 E12       30.05F

$$

MOZ041-047>049-056>058-063>065-088>090-097-290900-
...EASTERN AND SOUTHERN MISSOURI...

CITY           SKY/WX    TMP DP  RH WIND       PRES   REMARKS
ST. LOUIS INTL CLOUDY    53  45  74 E12       30.08F
SPIRIT OF STL  CLOUDY    53  47  79 E13       30.05F
COLUMBIA       CLOUDY    52  48  86 E16       29.99F
JEFFERSON CITY CLOUDY    56  47  71 E15G21    29.98F
ROLLA          CLOUDY    50  48  93 E8        29.98F
OSAGE BEACH    CLOUDY    53  47  79 E13G21    29.96F
SPRINGFIELD    MOCLDY    56  49  77 E23G30    29.83F
BRANSON        CLOUDY    54  52  94 SE18G25   29.89S
JOPLIN         TSTM      59  55  87 SE17G26   29.77R FOG
WEST PLAINS    CLOUDY    54  49  83 E15G21    29.97F

$$

IAZ060-094-KSZ022-034>040-054-083-096-NEZ052-066-093-290900-
...KANSAS...SOUTHEAST NEBRASKA AND IOWA...

CITY           SKY/WX    TMP DP  RH WIND       PRES   REMARKS
TOPEKA         TSTM      51  51 100 NE16G28   29.89F FOG
MANHATTAN      HVY RAIN  51  50  96 NE20G31   29.89F FOG
EMPORIA        RAIN      50  50 100 NE16      29.84F FOG
CHANUTE        RAIN      57  53  86 E12       29.75F
WICHITA        LGT RAIN  51  51 100 N22G32    29.75F
OMAHA          LGT RAIN  48  42  80 NE13      30.06F
LINCOLN        LGT RAIN  46  44  93 NE14      30.05F FOG
FALLS CITY     CLOUDY    50  46  86 NE9       30.01R
LAMONI         CLOUDY    48  45  89 E8        30.05F
DES MOINES     CLOUDY    48  42  80 E9        30.10F

$$




USA.gov is the U.S. government's official web portal to all federal, state and local government web resources and services.